Location: Powder Track
(41.8531°N, 72.3584°W)
Time: 22:35:38
(UTC+00:00)

Vanguard 2 Rocket - Pass Details

Date: 09 August 2021
Orbit: 555 x 3324 km, 32.9° (Epoch: 18 September)

Event Time Altitude Azimuth Distance (km) Brightness Sun altitude
Rises 10:51:23 0° 250° (WSW) 3,925 9.5 9.8°
Reaches altitude 10° 10:54:56 10° 240° (WSW) 2,581 8.7 10.4°
Maximum altitude 10:59:47 29° 181° (S) 1,265 7.6 11.3°
Drops below altitude 10° 11:03:26 10° 120° (ESE) 1,913 9.5 12.0°
Sets 11:05:40 0° 108° (ESE) 2,737 10.6 12.4°
